This demonstration page uses our WeatherBlox Daily Observations layout. Learn more.

38.89511, -77.03637

Hourly Observations for October 14, 2019

Temp ( °F °C ) Dew Point ( °F °C ) Humidity (%) Winds ( mph kmh ) Pressure ( in mb ) Visibility ( mi km ) Precip ( " mm )
12:52 am 00:52 Mostly Cloudy 60 15.6 53 11.7 78 78 Calm 30 1016 10 16.0934 0 0
1:52 am 01:52 Clear 58 14.4 54 12.2 87 87 Calm 29.99 1016 10 16.0934 0 0
1:54 am 01:54 Mostly Clear 58 14.4 54 12.2 87 87 Calm 30 1016 10 16.0934 0 0
2:52 am 02:52 Mostly Clear 56 13.3 53 11.7 90 90 Calm 29.98 1015 10 16.0934 0 0
3:52 am 03:52 Mostly Clear 55 12.8 52 11.1 90 90 WSW 3 6 29.98 1015 10 16.0934 0 0
4:52 am 04:52 Mostly Clear 55 12.8 52 11.1 90 90 Calm 29.97 1015 10 16.0934 0 0
5:52 am 05:52 Mostly Clear 54 12.2 51 10.6 90 90 Calm 29.99 1016 10 16.0934 0 0
6:52 am 06:52 Partly Cloudy 53 11.7 50 10 89 89 NNW 6 9 30.02 1017 10 16.0934 0 0
7:52 am 07:52 Partly Cloudy 54 12.2 50 10 87 87 Calm 30.03 1017 9 14.48406 0 0
8:52 am 08:52 Sunny 59 15 52 11.1 78 78 NNE 3 6 30.05 1018 10 16.0934 0 0
9:52 am 09:52 Sunny 60 15.6 53 11.7 78 78 SE 3 6 30.06 1018 10 16.0934 0 0
10:52 am 10:52 Sunny 63 17.2 53 11.7 70 70 S 6 9 30.06 1018 10 16.0934 0 0
11:52 am 11:52 Sunny 68 20 51 10.6 55 55 ENE 5 7 30.04 1017 10 16.0934 0 0
12:52 pm 12:52 Sunny 73 22.8 39 3.9 29 29 undefined N/A 30.03 1017 10 16.0934 0 0
12:54 pm 12:54 Sunny 73 22.8 38 3.3 28 28 W 6 9 30.03 1017 10 16.0934 0 0
1:52 pm 13:52 Sunny 73 22.8 46 7.8 38 38 SSE 8 13 30 1016 10 16.0934 0 0
2:52 pm 14:52 Sunny 76 24.4 40 4.4 27 27 SW 7 11 29.98 1015 10 16.0934 0 0
3:52 pm 15:52 Sunny 77 25 41 5 28 28 SSW 12 19 29.97 1015 10 16.0934 0 0
4:52 pm 16:52 Sunny 76 24.4 42 5.6 30 30 SW 12 19 29.96 1015 10 16.0934 0 0
5:52 pm 17:52 Sunny 72 22.2 51 10.6 48 48 S 10 17 29.97 1015 10 16.0934 0 0
6:52 pm 18:52 Clear 68 20 52 11.1 57 57 SSW 6 9 29.99 1016 10 16.0934 0 0
7:52 pm 19:52 Clear 67 19.4 50 10 55 55 SSW 6 9 30.01 1016 10 16.0934 0 0
8:52 pm 20:52 Clear 65 18.3 51 10.6 61 61 Calm 30.02 1017 10 16.0934 0 0
9:52 pm 21:52 Clear 64 17.8 51 10.6 63 63 NW 12 19 30.04 1017 10 16.0934 0 0
10:52 pm 22:52 Clear 63 17.2 47 8.3 56 56 NNW 7 11 30.06 1018 10 16.0934 0 0
11:52 pm 23:52 Clear 62 16.7 46 7.8 56 56 N 3 6 30.08 1019 10 16.0934 0 0

Powered by AerisWeather